This demonstration page uses our WeatherBlox Daily Observations layout. Learn more.

Hourly Observations for March 12, 2017

Temp ( °F °C ) Dew Point ( °F °C ) Humidity (%) Winds ( mph kmh ) Pressure ( in mb ) Visibility ( mi km ) Precip ( " mm )
12:15 am 00:15 Partly Cloudy 21 -6 19 -7 93 93 SE 6 9 30.5 1033 10 16.0934 0 0
12:35 am 00:35 Mostly Cloudy 24 -4.2 23 -5.1 94 94 SSE 3 6 30.5 1033 10 16.0934 0 0
12:55 am 00:55 Cloudy 26 -3.2 24 -4.3 92 92 SSE 5 7 30.45 1031 10 16.0934 0 0
1:15 am 01:15 Cloudy 27 -2.9 25 -4 92 92 Calm 30.45 1031 10 16.0934 0 0
1:35 am 01:35 Cloudy 29 -1.8 27 -3 92 92 S 3 6 30.45 1031 10 16.0934 0 0
1:55 am 01:55 Cloudy 31 -0.7 28 -2.1 90 90 S 6 9 30.45 1031 10 16.0934 0 0
3:15 am 03:15 Cloudy 32 -0.2 28 -2 88 88 S 8 13 30.39 1029 10 16.0934 0 0
3:35 am 03:35 Cloudy 32 -0.2 28 -2 88 88 S 10 17 30.39 1029 10 16.0934 0 0
3:55 am 03:55 Cloudy 32 -0.1 28 -2 87 87 S 10 17 30.36 1028 10 16.0934 0 0
4:15 am 04:15 Cloudy 32 -0.1 28 -2 87 87 S 13 20 30.36 1028 10 16.0934 0 0
4:35 am 04:35 Cloudy 32 -0.2 29 -1.8 89 89 S 9 15 30.33 1027 10 16.0934 0 0
4:55 am 04:55 Cloudy 32 -0.2 28 -2 88 88 S 12 19 30.33 1027 10 16.0934 0 0
5:15 am 05:15 Cloudy 32 -0.2 28 -2 88 88 S 13 20 30.33 1027 10 16.0934 0 0
5:35 am 05:35 Cloudy 32 -0.2 28 -2.1 87 87 S 12 19 30.33 1027 10 16.0934 0 0
5:55 am 05:55 Cloudy 32 -0.2 28 -2 88 88 S 9 15 30.33 1027 10 16.0934 0 0
6:15 am 06:15 Cloudy 31 -0.3 28 -2 88 88 S 10 17 30.3 1026 10 16.0934 0 0
6:35 am 06:35 Cloudy 31 -0.3 28 -2.2 87 87 S 8 13 30.3 1026 10 16.0934 0 0
6:55 am 06:55 Cloudy 31 -0.5 28 -2.2 88 88 S 14 22 30.3 1026 10 16.0934 0 0
7:15 am 07:15 Cloudy 31 -0.5 28 -2.3 88 88 SSE 10 17 30.3 1026 10 16.0934 0 0
7:35 am 07:35 Cloudy 31 -0.6 28 -2.4 88 88 SSE 12 19 30.3 1026 10 16.0934 0 0
7:55 am 07:55 Cloudy 31 -0.8 28 -2.4 89 89 SSE 15 24 30.27 1025 10 16.0934 0 0
8:15 am 08:15 Cloudy 30 -1 28 -2.5 90 90 SSE 13 20 30.27 1025 10 16.0934 0 0
8:35 am 08:35 Cloudy 30 -1 28 -2.5 90 90 SSE 15 24 30.24 1024 10 16.0934 0 0
8:55 am 08:55 Cloudy 30 -1 28 -2.5 90 90 SSE 18 30 30.24 1024 10 16.0934 0 0
9:15 am 09:15 Cloudy 31 -0.8 28 -2.2 90 90 SSE 18 30 30.24 1024 10 16.0934 0 0
9:35 am 09:35 Cloudy 31 -0.7 28 -2.2 90 90 S 20 31 30.24 1024 10 16.0934 0 0
9:55 am 09:55 Cloudy 31 -0.6 28 -2.3 88 88 S 23 37 30.21 1023 10 16.0934 0 0
10:15 am 10:15 Cloudy 31 -0.6 28 -2.5 87 87 S 24 39 30.18 1022 10 16.0934 0 0
10:35 am 10:35 Cloudy 31 -0.4 28 -2.4 87 87 S 21 33 30.18 1022 10 16.0934 0 0
10:55 am 10:55 Cloudy 31 -0.4 28 -2.5 86 86 S 20 31 30.18 1022 10 16.0934 0 0
11:15 am 11:15 Cloudy 31 -0.5 28 -2.2 88 88 S 17 28 30.18 1022 10 16.0934 0 0
11:35 am 11:35 Cloudy 32 -0.1 28 -2 87 87 S 22 35 30.12 1020 10 16.0934 0 0
11:55 am 11:55 Cloudy 32 0.1 29 -1.8 87 87 S 21 33 30.09 1019 10 16.0934 0 0
12:15 pm 12:15 Cloudy 33 0.8 29 -1.6 84 84 S 21 33 30.09 1019 10 16.0934 0 0
12:35 pm 12:35 Cloudy 36 2.4 30 -1.2 77 77 S 26 43 30.06 1018 10 16.0934 0 0
12:55 pm 12:55 Mostly Cloudy 38 3.2 30 -1.3 73 73 S 25 41 30.03 1017 10 16.0934 0 0
1:15 pm 13:15 Partly Cloudy 39 3.7 29 -1.6 69 69 S 25 41 30 1016 10 16.0934 0 0
1:35 pm 13:35 Partly Cloudy 39 4 29 -1.8 66 66 S 29 46 30 1016 10 16.0934 0 0
1:55 pm 13:55 Sunny 40 4.2 29 -1.8 65 65 SSW 26 43 30 1016 10 16.0934 0 0
2:15 pm 14:15 Partly Cloudy 41 4.9 29 -1.7 63 63 SSW 29 46 30 1016 10 16.0934 0 0
2:35 pm 14:35 Partly Cloudy 42 5.4 29 -1.5 61 61 SSW 25 41 29.97 1015 10 16.0934 0 0
2:55 pm 14:55 Partly Cloudy 44 6.4 29 -1.5 57 57 SSW 29 46 29.94 1014 10 16.0934 0 0
3:15 pm 15:15 Mostly Cloudy 46 7.5 29 -1.5 53 53 SSW 20 31 29.94 1014 10 16.0934 0 0
3:35 pm 15:35 Cloudy 47 8.1 29 -1.8 50 50 SW 20 31 29.94 1014 10 16.0934 0 0
3:55 pm 15:55 Mostly Cloudy 49 9.5 29 -1.8 46 46 SSW 17 28 29.91 1013 10 16.0934 0 0
4:15 pm 16:15 Partly Cloudy 49 9.7 29 -1.8 45 45 SW 20 31 29.91 1013 10 16.0934 0 0
4:35 pm 16:35 Partly Cloudy 51 10.6 29 -1.8 42 42 SSW 22 35 29.91 1013 10 16.0934 0 0
4:55 pm 16:55 Mostly Cloudy 53 11.5 29 -1.6 40 40 SW 12 19 29.91 1013 10 16.0934 0 0
5:15 pm 17:15 Mostly Cloudy 54 12.4 29 -1.6 38 38 SW 9 15 29.88 1012 10 16.0934 0 0
5:35 pm 17:35 Cloudy 54 12 29 -1.5 39 39 WNW 20 31 29.88 1012 10 16.0934 0 0
5:55 pm 17:55 Cloudy 51 10.3 32 0.2 50 50 NNW 23 37 29.94 1014 10 16.0934 0 0
6:15 pm 18:15 Cloudy 48 9.1 33 0.8 56 56 NNW 21 33 29.97 1015 10 16.0934 0 0
6:35 pm 18:35 Cloudy 47 8.1 34 1.2 62 62 NNW 14 22 30 1016 10 16.0934 0 0
6:55 pm 18:55 Cloudy with Light Rain 46 7.7 35 1.6 66 66 NNW 16 26 30 1016 10 16.0934 0 0
7:15 pm 19:15 Mostly Cloudy 46 7.6 35 1.5 66 66 NNW 13 20 30.03 1017 10 16.0934 0 0
7:35 pm 19:35 Sunny 44 6.6 34 1 68 68 N 13 20 30.03 1017 10 16.0934 0 0
7:55 pm 19:55 Clear 42 5.5 33 0.8 72 72 NNW 8 13 30.06 1018 10 16.0934 0 0
8:15 pm 20:15 Clear 40 4.7 33 0.6 75 75 NNW 8 13 30.06 1018 10 16.0934 0 0
8:35 pm 20:35 Clear 41 5 32 0.1 71 71 N 14 22 30.06 1018 10 16.0934 0 0
8:55 pm 20:55 Clear 41 4.9 31 -0.5 68 68 NNW 12 19 30.09 1019 10 16.0934 0 0
9:15 pm 21:15 Clear 39 3.8 31 -0.8 72 72 N 9 15 30.09 1019 10 16.0934 0 0
9:35 pm 21:35 Clear 38 3.2 31 -0.7 76 76 N 15 24 30.15 1021 10 16.0934 0 0
9:55 pm 21:55 Clear 37 2.6 30 -1.2 76 76 N 15 24 30.15 1021 10 16.0934 0 0
10:15 pm 22:15 Clear 36 2 26 -3.3 68 68 NNW 17 28 30.18 1022 10 16.0934 0 0
10:35 pm 22:35 Partly Cloudy 34 0.9 26 -3.4 73 73 N 20 31 30.18 1022 10 16.0934 0 0
10:55 pm 22:55 Partly Cloudy 32 0.2 24 -4.7 70 70 NNW 16 26 30.24 1024 10 16.0934 0 0
11:15 pm 23:15 Partly Cloudy 31 -0.5 22 -5.3 70 70 NNW 17 28 30.24 1024 10 16.0934 0 0
11:35 pm 23:35 Partly Cloudy 30 -1 20 -6.7 66 66 NW 23 37 30.24 1024 10 16.0934 0 0
11:55 pm 23:55 Partly Cloudy 29 -1.7 20 -6.9 68 68 N 14 22 30.24 1024 10 16.0934 0 0

Powered by AerisWeather